This is the latest recevied weather packets stored in our database for station/object KD9CCP. If no packets are shown the sender has not sent any weather packets the latest 10 day(s).
| Time | Temp. | Humidity | Pressure | Rain* | Wind** | Luminosity | Snow |
|---|---|---|---|---|---|---|---|
| 1778024149 | 5° C | 56% | 1010.6 hPa | 0 mm | - | 15 W/m² | - |
| 1778023846 | 5° C | 60% | 1010.5 hPa | 0 mm | - | 18 W/m² | - |
| 1778023544 | 5° C | 58% | 1010.5 hPa | 0 mm | - | 18 W/m² | - |
| 1778023241 | 5° C | 58% | 1010.5 hPa | 0 mm | - | 26 W/m² | - |
| 1778022938 | 5° C | 60% | 1010.5 hPa | 0 mm | - | 16 W/m² | - |
| 1778022637 | 5° C | 61% | 1010.6 hPa | 0 mm | - | 14 W/m² | - |
| 1778022334 | 5° C | 58% | 1010.9 hPa | 0 mm | - | 17 W/m² | - |
| 1778022030 | 5° C | 57% | 1010.6 hPa | 0 mm | - | 23 W/m² | - |
| 1778021727 | 5° C | 56% | 1010.7 hPa | 0 mm | - | 25 W/m² | - |
| 1778021423 | 5° C | 56% | 1010.9 hPa | 0 mm | - | 22 W/m² | - |
| 1778021120 | 5° C | 57% | 1010.6 hPa | 0 mm | - | 25 W/m² | - |
| 1778020817 | 5° C | 54% | 1010.6 hPa | 0 mm | - | 27 W/m² | - |
| 1778020514 | 5° C | 54% | 1010.6 hPa | 0 mm | - | 28 W/m² | - |
| 1778020210 | 5° C | 54% | 1010.3 hPa | 0 mm | - | 29 W/m² | - |
| 1778019907 | 5.56° C | 56% | 1010.4 hPa | 0 mm | - | 32 W/m² | - |
| 1778019602 | 5° C | 60% | 1010.6 hPa | 0 mm | - | 39 W/m² | - |
| 1778019300 | 5° C | 58% | 1010.6 hPa | 0 mm | - | 38 W/m² | - |
| 1778018997 | 5° C | 53% | 1010.5 hPa | 0 mm | - | 35 W/m² | - |
| 1778018694 | 5° C | 54% | 1010.6 hPa | 0 mm | - | 35 W/m² | - |
| 1778018391 | 5° C | 55% | 1010.5 hPa | 0 mm | - | 35 W/m² | - |
| 1778018090 | 5° C | 54% | 1010.4 hPa | 0 mm | - | 41 W/m² | - |
| 1778017787 | 5° C | 55% | 1010.5 hPa | 0 mm | - | 42 W/m² | - |
| 1778017485 | 5° C | 55% | 1010.5 hPa | 0 mm | - | 46 W/m² | - |
| 1778017182 | 5° C | 60% | 1010.3 hPa | 0 mm | - | 47 W/m² | - |
| 1778016880 | 5° C | 58% | 1010.4 hPa | 0 mm | - | 52 W/m² | - |
* Rain latest hour (hover to see other rain measurements)
** Current wind speed in m/s (hover to see current wind gust speed)